EAGLET 1
1 43790U 18099AJ 23208.44786780 .00004092 00000-0 33874-3 0 9992
2 43790 97.5719 270.3702 0010976 359.8746 0.2473 14.99372506253416
ESEO
1 43792U 18099AL 23208.44663662 .00002718 00000-0 23585-3 0 9998
2 43792 97.5667 268.7217 0012110 358.1192 1.9983 14.97811542253411
CSIM
1 43793U 18099AM 23207.90324826 .00011663 00000-0 82441-3 0 9990
2 43793 97.5751 272.4796 0014863 359.5258 0.5951 15.04955256253550
Astrocast 0.1
1 43798U 18099AS 23208.41919228 .00008955 00000-0 66284-3 0 9995
2 43798 97.5823 272.2820 0010905 334.1852 25.8828 15.03334856253811
JO-97
1 43803U 18099AX 23208.44448493 .00006568 00000-0 51344-3 0 9995
2 43803 97.5732 270.0002 0013733 330.0973 29.9466 15.01336466253737
Suomi 100
1 43804U 18099AY 23208.45073901 .00006237 00000-0 49161-3 0 9992
2 43804 97.5717 269.7723 0019326 342.0791 17.9750 15.00966178253732
Al Farabi 2
1 43805U 18099AZ 23208.41165739 .00007738 00000-0 58128-3 0 9990
2 43805 97.5568 270.8315 0011714 331.3654 28.6927 15.02813677253797
CHOMPTT
1 43855U 18104G 23208.55334901 .00028485 00000-0 65513-3 0 9994
2 43855 85.0300 138.6575 0013353 150.0602 210.1417 15.42415261256793
ISAT
1 43879U 18111D 23207.98289056 .00008089 00000-0 60468-3 0 9996
2 43879 97.6412 111.8921 0016203 36.9090 323.3247 15.02939329250312
UWE-4
1 43880U 18111E 23208.18368357 .00006790 00000-0 51085-3 0 9995
2 43880 97.6312 112.7525 0020421 43.2755 317.0070 15.02692577250370
Sparrow
1 43881U 18111F 23207.98035365 .00007937 00000-0 58833-3 0 9995
2 43881 97.6454 113.2833 0013380 74.3644 285.9057 15.03296614250364
Lume 1
1 43908U 18111AJ 23208.42030948 .00041505 00000-0 75356-3 0 9995
2 43908 97.1340 91.1558 0013512 61.4480 298.8130 15.49360846255610
FO-99
1 43937U 19003F 23208.11835952 .00081862 00000-0 10790-2 0 9992
2 43937 97.0827 234.9635 0013696 128.0076 232.2420 15.58040652252259
AstroCast 0.2
1 44083U 19018F 23208.12850617 .00082558 00000-0 12332-2 0 9994
2 44083 97.2630 268.3720 0005574 113.9587 246.2251 15.54738663240614
AISTechSat 3
1 44103U 19018AB 23208.70584700 .00030401 00000-0 68115-3 0 9999
2 44103 97.2502 266.9346 0010108 125.6965 234.5225 15.43331463240753
AISat 1
1 44104U 19018AC 23208.22468618 .00027467 00000-0 49930-3 0 9998
2 44104 97.3738 300.3444 0040031 112.1901 248.3605 15.48596863241913
Prox-1
1 44339U 19036A 23208.15819252 .00008267 00000-0 16462-2 0 9994
2 44339 23.9992 150.3292 0009247 346.9117 13.1135 14.59914228217441
Move-IIb
1 44398U 19038N 23208.18347940 .00072259 00000-0 15168-2 0 9998
2 44398 97.6600 193.0321 0016234 138.6467 221.6013 15.44971775224832
SONATE
1 44400U 19038Q 23208.21218061 .00011330 00000-0 49491-3 0 9997
2 44400 97.6858 186.7091 0020963 166.8733 193.3052 15.22085428224326
BeeSat 9
1 44412U 19038AC 23208.40889191 .00025205 00000-0 81654-3 0 9992
2 44412 97.6749 190.4280 0016602 154.4580 205.7485 15.31870639224311
JAISAT-1
1 44419U 19038F 23208.41611986 .00025102 00000-0 80618-3 0 9990
2 44419 97.6747 191.5349 0015948 150.8218 209.3918 15.32160028224691
Taurus 1
1 44530U 19059C 23208.78128372 .00004449 00000-0 11486-2 0 9996
2 44530 98.5572 317.2228 0011617 331.2803 28.7749 14.50441981204522
Duchifat 3
1 44854U 19089C 23208.70124642 .00008390 00000-0 55519-3 0 9991
2 44854 36.9603 209.0402 0009584 281.8832 78.0837 15.06893010198946
OPS-SAT
1 44878U 19092F 23208.46531292 .00026413 00000-0 74183-3 0 9991
2 44878 97.4750 37.7879 0007934 357.9626 2.1584 15.36486464199979
TO-108
1 44881U 19093C 23208.65632427 .00001048 00000-0 13651-3 0 9999
2 44881 97.8606 286.4195 0013544 309.7601 50.2419 14.82628349194799
FloripaSat 1
1 44885U 19093G 23208.75054120 .00003770 00000-0 43568-3 0 9996
2 44885 97.8673 289.4694 0012312 310.1509 49.8627 14.86122578194971
RS-44
1 44909U 19096E 23208.33036156 .00000015 00000-0 77856-5 0 9997
2 44909 82.5242 321.2722 0218530 93.1522 269.4606 12.79722198167297
BY70-2
1 45857U 20042B 23208.67189324 .00019328 00000-0 19072-2 0 9996
2 45857 97.9246 288.7505 0008883 222.5433 137.5098 14.91991021165575
UPMSat 2
1 46276U 20061E 23208.14359981 .00010692 00000-0 44217-3 0 9998
2 46276 97.3443 274.9044 0002090 140.3561 219.7829 15.24142366160377
AmicalSat
1 46287U 20061R 23208.15347517 .00014349 00000-0 64831-3 0 9990
2 46287 97.3976 273.9314 0000854 358.0384 2.0848 15.21059468159780
SALSAT
1 46495U 20068K 23208.59926128 .00005652 00000-0 36956-3 0 9991
2 46495 97.7711 157.0435 0014902 349.6947 10.3973 15.08117005155164
CAPE 3
1 47309U 21002A 23208.42908989 .00037586 00000-0 81951-3 0 9998
2 47309 60.6755 264.4572 0007820 285.7774 74.2460 15.43994379140496
AO-109
1 47311U 21002C 23208.43181238 .00027659 00000-0 66692-3 0 9997
2 47311 60.6797 263.5832 0005283 272.5333 87.5157 15.41129856140487
ExoCube 2
1 47319U 21002L 23207.86902305 .00030060 00000-0 74577-3 0 9998
2 47319 60.6776 268.0939 0006454 272.3629 87.6727 15.40219995140327
UVSQ-SAT
1 47438U 21006AB 23208.12238836 .00019187 00000-0 75584-3 0 9991
2 47438 97.3814 264.6814 0007776 303.0591 56.9900 15.25616330138732
YUSAT 1
1 47439U 21006AC 23208.14350783 .00024812 00000-0 89483-3 0 9994
2 47439 97.3823 265.6237 0007088 298.1228 61.9295 15.28494823138793
SOMP 2b
1 47445U 21006AJ 23208.59040781 .00014973 00000-0 60477-3 0 9993
2 47445 97.3783 264.3309 0007755 308.2622 51.7917 15.24833603138778
IDEASSat
1 47458U 21006AX 23208.58863813 .00014389 00000-0 59316-3 0 9996
2 47458 97.3879 265.1215 0007186 308.0482 52.0107 15.24160033138756
CubeSX-Sirius-HSE
1 47951U 21022V 23208.72851874 .00010036 00000-0 55137-3 0 9994
2 47951 97.4927 105.4351 0018200 188.6523 171.4398 15.14163371129163
CubeSX-HSE
1 47952U 21022W 23208.70000393 .00008853 00000-0 48598-3 0 9992
2 47952 97.4927 105.4580 0018136 187.5571 172.5390 15.14230078129160
KSU-Cubesat
1 47954U 21022Y 23208.66183327 .00011569 00000-0 61723-3 0 9991
2 47954 97.4930 105.8542 0017581 186.2649 173.8366 15.15178059128902
GRBAlpha
1 47959U 21022AD 23208.68442519 .00008979 00000-0 49174-3 0 9996
2 47959 97.4927 105.5323 0017976 188.2980 171.7957 15.14312422127988
Orbicraft-Zorkiy
1 47960U 21022AE 23208.68860265 .00009706 00000-0 52016-3 0 9998
2 47960 97.4958 106.0230 0017602 186.8480 173.2514 15.15065531128694
STECCO
1 47962U 21022AG 23208.72522849 .00019123 00000-0 84569-3 0 9990
2 47962 97.4929 108.8026 0012908 169.0914 191.0604 15.21660358128206
MO-110
1 47964U 21022AJ 23208.16057952 .00022034 00000-0 94840-3 0 9996
2 47964 97.4940 108.8969 0014977 168.1228 192.0365 15.22526697128150
FEES
1 48082U 21022AL 23208.19166395 .00044328 00000-0 15080-2 0 9991
2 48082 97.4924 110.6006 0011466 153.3893 206.7938 15.30235396127971
TUBIN
1 48900U 21059X 23208.64786537 .00009888 00000-0 45996-3 0 9998
2 48900 97.6042 342.5339 0009954 136.5301 223.6720 15.20118599115321
IT-SPINS
1 49017U 21013G 23208.48329781 .00034095 00000-0 71139-3 0 9990
2 49017 51.5899 240.7321 0006229 90.3653 269.8046 15.45199790115938
LEDSAT
1 49069U 21073D 23208.62122057 .00009205 00000-0 49503-3 0 9991
2 49069 97.4802 278.8253 0022830 343.7258 16.3238 15.14865479107025
CUTE
1 49263U 21088D 23208.14133177 .00012463 00000-0 78070-3 0 9996
2 49263 97.5414 273.2634 0019140 124.7772 235.5262 15.09350583100317
TeikyoSat 4
1 49396U 21102B 23208.42781240 .00002964 00000-0 22782-3 0 9995
2 49396 97.5095 259.1665 0013946 304.1930 55.7973 15.02400762 93819
